• In Hungary
  • List of Countries
  • For 7 days
  • Water Temperature
  • Satellite Maps
  • Weather Map
  • News
  • Weather Widgets
  • user-avatar
    Login

    Hourly Weather Nerdashevo

    Today, 25 May, Friday

    Time Temperature Precipitation Wind Pressure Humidity
    00:00 +11°C° 0 mm 4 mps 751 mmHg 70%
    01:00 +10°C° 0 mm 4 mps 751 mmHg 66%
    02:00 +8°C° 0 mm 4 mps 751 mmHg 63%
    03:00 +9°C° 0 mm 3 mps 751 mmHg 64%
    04:00 +8°C° 0 mm 4 mps 751 mmHg 62%
    05:00 +8°C° 0 mm 4 mps 751 mmHg 60%
    06:00 +8°C° 0 mm 5 mps 752 mmHg 58%
    07:00 +9°C° 0 mm 5 mps 752 mmHg 53%
    08:00 +10°C° 0 mm 5 mps 752 mmHg 49%
    09:00 +11°C° 0 mm 6 mps 753 mmHg 44%
    10:00 +11°C° 0 mm 6 mps 753 mmHg 42%
    11:00 +13°C° 0 mm 6 mps 753 mmHg 40%
    12:00 +13°C° 0 mm 6 mps 753 mmHg 38%
    13:00 +13°C° 0 mm 6 mps 753 mmHg 39%
    14:00 +11°C° 0 mm 6 mps 754 mmHg 39%
    15:00 +11°C° 0 mm 6 mps 754 mmHg 40%
    16:00 +12°C° 0 mm 5 mps 754 mmHg 42%
    17:00 +10°C° 0 mm 5 mps 755 mmHg 43%
    18:00 +10°C° 0 mm 5 mps 755 mmHg 44%
    19:00 +10°C° 0 mm 4 mps 755 mmHg 47%
    20:00 +7°C° 0 mm 4 mps 756 mmHg 51%
    21:00 +7°C° 0 mm 3 mps 756 mmHg 54%
    22:00 +5°C° 0 mm 3 mps 757 mmHg 54%
    23:00 +4°C° 0 mm 4 mps 757 mmHg 53%

    Tomorrow, 26 May, Saturday

    Time Temperature Precipitation Wind Pressure Humidity
    00:00 +4°C° 0 mm 4 mps 758 mmHg 53%
    01:00 +3°C° 0 mm 4 mps 758 mmHg 55%
    02:00 +2°C° 0 mm 3 mps 759 mmHg 57%
    03:00 +2°C° 0 mm 3 mps 759 mmHg 59%
    04:00 +1°C° 0 mm 4 mps 759 mmHg 56%
    05:00 +3°C° 0 mm 4 mps 760 mmHg 53%
    06:00 +4°C° 0 mm 4 mps 760 mmHg 49%
    07:00 +5°C° 0 mm 5 mps 761 mmHg 46%
    08:00 +7°C° 0 mm 5 mps 761 mmHg 43%
    09:00 +8°C° 0 mm 5 mps 761 mmHg 40%
    10:00 +9°C° 0 mm 5 mps 761 mmHg 39%
    11:00 +10°C° 0 mm 5 mps 761 mmHg 37%
    12:00 +13°C° 0 mm 4 mps 761 mmHg 36%
    13:00 +13°C° 0 mm 4 mps 760 mmHg 35%
    14:00 +14°C° 0 mm 4 mps 760 mmHg 35%
    15:00 +16°C° 0 mm 3 mps 760 mmHg 35%
    16:00 +14°C° 0 mm 3 mps 760 mmHg 38%
    17:00 +15°C° 0 mm 2 mps 759 mmHg 41%
    18:00 +15°C° 0 mm 2 mps 759 mmHg 44%
    19:00 +13°C° 0 mm 2 mps 759 mmHg 48%
    20:00 +10°C° 0 mm 2 mps 759 mmHg 52%
    21:00 +9°C° 0 mm 2 mps 759 mmHg 56%
    22:00 +8°C° 0 mm 3 mps 758 mmHg 57%
    23:00 +8°C° 0 mm 3 mps 758 mmHg 57%

    Day after tomorrow, 27 May, Sunday

    Time Temperature Precipitation Wind Pressure Humidity
    00:00 +8°C° 0 mm 3 mps 758 mmHg 58%
    01:00 +7°C° 0 mm 4 mps 757 mmHg 60%
    02:00 +7°C° 0 mm 4 mps 757 mmHg 62%
    03:00 +7°C° 0 mm 4 mps 756 mmHg 65%
    04:00 +8°C° 0 mm 5 mps 756 mmHg 64%
    05:00 +9°C° 0 mm 5 mps 755 mmHg 63%
    06:00 +10°C° 0 mm 6 mps 755 mmHg 63%
    07:00 +13°C° 0 mm 6 mps 754 mmHg 60%
    08:00 +15°C° 0 mm 6 mps 753 mmHg 58%
    09:00 +17°C° 0 mm 7 mps 753 mmHg 55%
    10:00 +20°C° 0 mm 7 mps 752 mmHg 52%
    11:00 +21°C° 0 mm 8 mps 752 mmHg 48%
    12:00 +22°C° 0 mm 8 mps 751 mmHg 44%
    13:00 +22°C° 0.4 mm 7 mps 751 mmHg 49%
    14:00 +21°C° 0.4 mm 7 mps 750 mmHg 54%
    15:00 +20°C° 0.4 mm 6 mps 749 mmHg 58%
    16:00 +16°C° 2.4 mm 5 mps 749 mmHg 70%
    17:00 +14°C° 2.4 mm 4 mps 749 mmHg 82%
    18:00 +12°C° 2.4 mm 3 mps 748 mmHg 94%
    19:00 +11°C° 0.8 mm 3 mps 748 mmHg 93%
    20:00 +11°C° 0.8 mm 3 mps 749 mmHg 91%
    21:00 +10°C° 0.8 mm 3 mps 749 mmHg 90%
    22:00 +10°C° 0.1 mm 3 mps 749 mmHg 89%
    23:00 +9°C° 0.1 mm 3 mps 750 mmHg 88%

    28 May, Monday

    Time Temperature Precipitation Wind Pressure Humidity
    00:00 +8°C° 0.1 mm 3 mps 750 mmHg 88%
    01:00 +7°C° 0 mm 3 mps 750 mmHg 87%
    02:00 +5°C° 0 mm 4 mps 751 mmHg 87%
    03:00 +5°C° 0 mm 4 mps 751 mmHg 86%
    04:00 +5°C° 0 mm 4 mps 752 mmHg 82%
    05:00 +5°C° 0 mm 5 mps 752 mmHg 77%
    06:00 +6°C° 0 mm 5 mps 752 mmHg 73%
    07:00 +7°C° 0 mm 6 mps 753 mmHg 65%
    08:00 +8°C° 0 mm 6 mps 753 mmHg 57%
    09:00 +9°C° 0 mm 7 mps 753 mmHg 49%
    10:00 +9°C° 0 mm 7 mps 753 mmHg 49%
    11:00 +9°C° 0 mm 7 mps 753 mmHg 49%
    12:00 +9°C° 0 mm 7 mps 753 mmHg 49%
    13:00 +9°C° 0 mm 7 mps 753 mmHg 48%
    14:00 +9°C° 0 mm 7 mps 753 mmHg 47%
    15:00 +10°C° 0 mm 7 mps 753 mmHg 47%
    16:00 +9°C° 0 mm 6 mps 753 mmHg 48%
    17:00 +9°C° 0 mm 5 mps 753 mmHg 50%
    18:00 +9°C° 0 mm 5 mps 753 mmHg 51%
    19:00 +8°C° 0 mm 4 mps 753 mmHg 55%
    20:00 +8°C° 0 mm 3 mps 753 mmHg 59%
    21:00 +7°C° 0 mm 2 mps 753 mmHg 63%
    22:00 +7°C° 0 mm 2 mps 753 mmHg 63%
    23:00 +6°C° 0 mm 2 mps 753 mmHg 64%

    29 May, Tuesday

    Time Temperature Precipitation Wind Pressure Humidity
    00:00 +6°C° 0 mm 2 mps 753 mmHg 65%
    01:00 +6°C° 0 mm 2 mps 753 mmHg 67%
    02:00 +5°C° 0 mm 2 mps 752 mmHg 70%
    03:00 +5°C° 0 mm 2 mps 752 mmHg 72%
    04:00 +6°C° 0.1 mm 2 mps 752 mmHg 76%
    05:00 +6°C° 0.1 mm 2 mps 752 mmHg 81%
    06:00 +7°C° 0.1 mm 2 mps 751 mmHg 85%
    07:00 +9°C° 0.1 mm 3 mps 751 mmHg 79%
    08:00 +10°C° 0.1 mm 4 mps 751 mmHg 73%
    09:00 +12°C° 0.1 mm 5 mps 750 mmHg 67%
    10:00 +13°C° 0.2 mm 6 mps 750 mmHg 61%
    11:00 +14°C° 0.2 mm 6 mps 750 mmHg 56%
    12:00 +14°C° 0.2 mm 7 mps 750 mmHg 51%
    13:00 +15°C° 0 mm 7 mps 750 mmHg 49%
    14:00 +15°C° 0 mm 6 mps 750 mmHg 47%
    15:00 +15°C° 0 mm 6 mps 750 mmHg 46%
    16:00 +15°C° 0 mm 5 mps 749 mmHg 49%
    17:00 +15°C° 0 mm 4 mps 749 mmHg 53%
    18:00 +14°C° 0 mm 3 mps 749 mmHg 56%
    19:00 +14°C° 0 mm 2 mps 749 mmHg 60%
    20:00 +13°C° 0 mm 2 mps 749 mmHg 63%
    21:00 +10°C° 0 mm 2 mps 749 mmHg 67%
    22:00 +10°C° 0 mm 2 mps 749 mmHg 69%
    23:00 +10°C° 0 mm 1 mps 749 mmHg 71%

    30 May, Wednesday

    Time Temperature Precipitation Wind Pressure Humidity
    00:00 +9°C° 0 mm 1 mps 749 mmHg 73%
    01:00 +9°C° 0 mm 1 mps 749 mmHg 75%
    02:00 +9°C° 0 mm 1 mps 748 mmHg 77%
    03:00 +8°C° 0 mm 1 mps 748 mmHg 79%
    04:00 +10°C° 0 mm 1 mps 748 mmHg 76%
    05:00 +11°C° 0 mm 1 mps 747 mmHg 73%
    06:00 +12°C° 0 mm 2 mps 747 mmHg 70%
    07:00 +14°C° 0 mm 2 mps 746 mmHg 67%
    08:00 +14°C° 0 mm 3 mps 745 mmHg 64%
    09:00 +17°C° 0 mm 4 mps 745 mmHg 62%
    10:00 +17°C° 0.1 mm 5 mps 744 mmHg 61%
    11:00 +19°C° 0.1 mm 6 mps 743 mmHg 61%
    12:00 +21°C° 0.1 mm 7 mps 742 mmHg 61%
    13:00 +21°C° 0.4 mm 6 mps 740 mmHg 59%
    14:00 +22°C° 0.4 mm 6 mps 739 mmHg 57%
    15:00 +22°C° 0.4 mm 5 mps 738 mmHg 55%
    16:00 +22°C° 0.2 mm 6 mps 737 mmHg 57%
    17:00 +21°C° 0.2 mm 6 mps 736 mmHg 58%
    18:00 +20°C° 0.2 mm 7 mps 735 mmHg 60%
    19:00 +17°C° 2.7 mm 7 mps 735 mmHg 70%
    20:00 +14°C° 2.7 mm 7 mps 735 mmHg 81%
    21:00 +11°C° 2.7 mm 7 mps 735 mmHg 91%
    22:00 +9°C° 0.1 mm 7 mps 735 mmHg 89%
    23:00 +7°C° 0.1 mm 6 mps 735 mmHg 86%
    Show more